Location: Bear Valley Community Church - Hurst
(32.8460°N, 97.1828°W)
Time: 01:41:39
(UTC+00:00)

Cosmos 1092 Rocket - Pass Details

Date: 09 July 2022
Orbit: 955 x 994 km, 83.0° (Epoch: 07 August)

Event Time Altitude Azimuth Distance (km) Brightness Sun altitude
Rises 10:32:49 0° 146° (SE) 3,627 7.0 -10.7°
Reaches altitude 10° 10:35:57 10° 131° (SE) 2,681 6.5 -10.2°
Maximum altitude 10:40:17 20° 85° (E) 2,028 6.6 -9.4°
Drops below altitude 10° 10:44:36 10° 40° (NE) 2,686 7.7 -8.7°
Sets 10:47:44 0° 24° (NNE) 3,636 8.1 -8.1°
